Probability
2 2 4 7 7 2 0 0 0 0 0 0 0 0 0 0 0 0 0 0 0 0 0 0 0 0 0 0 0 0 1 2 4 5 5 4 4 3 3 3 3 2 2 3 3 3 3 3 3
1 3 6 8 5 1 0 0 0 0 0 0 0 0 0 0 0 0 0 0 0 0 0 0 0 0 1 1 1 1 1 3 4 5 6 5 4 3 3 3 3 3 2 2 3 3 3 3 3
4 6 8 6 2 0 0 0 0 0 0 0 0 0 0 0 0 0 0 0 0 0 0 0 1 1 2 3 3 2 2 3 3 4 5 5 4 3 3 4 4 3 2 2 3 3 3 3 4
9 9 8 4 1 0 0 0 0 0 0 0 0 0 0 0 0 0 0 0 0 0 0 1 2 3 3 3 3 3 3 2 2 2 4 4 3 3 3 4 4 3 2 1 2 3 3 4 4
11 9 5 1 0 0 0 0 0 0 0 0 0 0 0 0 0 0 0 0 0 0 0 1 2 4 3 2 2 2 2 1 0 1 3 3 1 1 3 4 5 4 3 3 3 3 3 3 4
10 6 2 0 0 0 0 0 0 0 0 0 0 0 0 0 0 0 0 0 0 0 0 1 2 3 3 2 1 1 1 0 0 1 1 1 0 1 3 4 5 5 5 4 4 4 3 3 3
5 2 0 0 0 0 0 0 0 0 0 0 0 0 0 0 0 1 1 0 0 0 0 0 1 2 2 2 1 0 0 0 0 0 0 0 1 1 3 5 5 4 4 4 4 3 3 3 3
1 0 0 0 0 0 0 0 0 0 0 0 0 0 0 0 1 2 2 1 1 0 0 1 2 2 1 1 1 1 1 0 0 1 1 1 1 2 3 4 5 4 3 3 3 3 3 3 4
0 0 0 0 0 0 0 0 0 0 0 0 0 0 0 0 1 2 3 3 3 1 0 1 2 2 1 0 1 1 1 0 0 1 2 1 1 1 1 2 3 3 3 3 3 3 3 4 4
0 0 0 0 0 0 0 0 0 0 0 0 1 1 0 1 2 2 3 4 4 2 1 2 2 1 1 0 0 1 1 0 0 1 1 1 0 0 0 0 1 1 2 2 3 3 3 3 3
0 0 0 0 0 0 0 0 0 0 0 0 1 2 1 1 2 3 3 4 4 3 2 2 2 2 1 1 0 0 0 0 0 1 1 0 0 1 1 1 1 0 1 1 1 2 1 1 1
0 0 0 0 0 0 0 0 0 0 0 0 1 2 1 1 3 4 3 3 5 5 4 4 3 2 2 1 1 0 0 0 0 1 1 0 0 1 2 2 2 1 0 0 1 1 1 0 0
0 0 1 1 1 0 0 0 0 0 0 0 1 1 1 2 4 5 4 5 7 8 7 6 6 4 3 2 2 1 1 0 0 0 0 0 0 1 2 3 4 2 0 0 0 0 0 0 0
0 1 2 2 2 1 1 1 0 0 0 0 0 0 1 3 4 5 5 6 8 9 9 9 7 5 5 4 3 2 1 0 0 0 0 0 1 2 3 4 5 3 1 0 0 0 0 0 0
0 1 2 3 3 3 2 2 1 0 0 1 1 1 1 2 3 3 3 4 6 7 9 9 7 5 4 4 3 3 2 2 1 0 0 0 1 3 4 5 5 4 2 1 0 1 1 1 1
0 0 1 2 3 3 3 3 2 1 0 1 2 2 3 3 2 1 1 2 4 6 8 8 7 4 4 4 4 4 4 4 3 2 3 3 4 4 5 6 5 4 3 1 1 1 2 2 2
0 0 0 1 2 3 3 3 3 1 0 1 2 3 4 4 3 2 2 3 4 5 7 9 8 6 6 6 5 4 5 6 6 6 6 8 9 7 6 5 5 4 4 3 2 2 3 3 3
0 0 0 0 1 2 1 2 3 3 1 0 1 2 4 6 6 4 4 4 3 4 7 9 9 8 8 6 5 4 4 6 7 8 9 10 10 9 6 5 4 5 6 5 3 3 4 3 3
0 0 0 0 0 0 0 1 3 4 2 1 1 3 5 8 8 7 6 5 4 4 6 8 10 10 8 7 5 5 5 6 7 9 10 10 9 8 6 6 5 6 7 7 5 5 5 4 4
0 0 0 0 0 0 0 1 3 5 5 3 3 5 7 9 9 8 7 7 7 6 6 9 11 11 9 8 8 7 6 7 8 8 8 8 7 7 7 8 8 8 9 8 8 7 5 4 5
0 0 0 0 0 0 0 2 3 6 7 6 5 6 8 9 8 8 8 8 9 9 9 10 12 13 13 12 10 8 8 8 9 9 8 6 5 6 7 8 10 10 11 11 11 10 7 6 6
0 0 0 0 0 0 0 1 2 5 8 8 8 8 9 8 7 8 9 9 11 11 11 12 13 14 15 14 11 9 8 8 8 9 8 6 4 4 6 7 10 11 12 12 13 13 11 9 8
0 0 0 0 0 0 0 0 1 4 7 10 10 9 9 7 8 9 9 9 9 10 10 11 12 13 14 13 11 9 7 6 7 8 8 6 4 3 4 7 9 12 13 14 14 15 15 13 11
0 0 0 0 0 0 0 0 1 5 8 11 11 9 7 7 8 9 8 7 7 8 10 11 12 13 13 11 10 9 8 7 8 9 8 6 5 4 4 6 9 11 13 14 15 16 16 15 14
0 0 0 0 0 0 0 0 3 7 10 11 10 8 6 7 10 11 8 6 7 8 10 11 12 13 12 11 10 10 10 10 10 11 10 8 6 6 6 7 8 10 12 14 15 16 16 15 15
0 0 0 0 0 0 0 2 5 8 9 9 8 7 6 7 10 11 10 9 8 9 11 14 14 13 13 12 11 11 12 12 12 12 12 10 8 8 8 9 9 9 11 13 15 16 15 15 15
0 0 0 0 0 0 0 2 6 8 8 8 8 8 9 11 11 11 12 12 11 11 14 16 16 15 14 14 12 12 11 12 12 13 13 12 10 10 11 11 10 9 9 12 15 15 15 15 15
0 0 0 0 0 0 0 1 3 7 9 9 9 11 13 16 15 14 15 15 14 15 16 16 16 16 15 14 12 11 10 10 11 12 12 12 12 12 12 12 10 9 8 10 14 14 13 14 16
0 0 0 0 0 0 0 0 2 7 11 12 12 13 14 18 19 18 16 16 17 17 18 16 14 14 14 14 12 11 10 10 10 9 9 10 11 12 13 11 9 7 7 9 12 13 13 14 16
0 0 0 0 0 0 0 0 2 7 11 13 14 13 14 17 20 19 16 16 18 20 19 17 14 13 13 14 13 11 10 10 9 7 6 8 9 11 12 11 7 5 6 8 10 11 12 14 15
Wind_Speed
11 8 5 5 6 2 10 9 8 7 7 7 7 6 7 8 8 7 5 5 5 5 6 5 5 5 5 5 5 6 6 7 8 7 7 7 7 7 7 6 6 6 7 8 8 8 9 9 9
7 5 6 6 2 6 10 9 9 9 7 5 5 5 6 8 8 6 5 5 4 5 5 6 7 5 5 4 4 5 6 6 7 7 7 7 6 5 5 6 5 5 6 7 9 8 8 8 8
5 5 5 2 6 8 9 8 8 8 6 4 5 6 6 6 6 4 5 5 5 6 6 9 7 6 5 4 2 5 6 7 7 7 6 6 5 4 4 4 3 4 5 7 8 8 8 8 9
4 6 5 1 10 10 8 7 6 6 6 6 5 7 7 6 4 5 6 5 6 6 6 9 6 6 6 6 6 7 7 7 7 7 6 5 5 4 4 3 3 4 4 6 7 7 7 8 9
5 5 1 7 10 9 8 6 5 6 6 6 5 8 8 7 6 7 6 5 5 6 6 9 7 6 6 6 7 7 7 7 6 6 6 5 4 4 3 3 3 3 4 6 6 5 5 6 7
4 3 3 8 10 8 7 6 5 6 7 6 5 7 8 6 6 5 5 5 5 5 5 7 8 6 6 6 6 6 6 6 6 5 5 4 4 3 3 3 2 3 4 5 6 5 5 5 6
4 2 6 8 8 8 7 5 5 6 7 6 4 6 7 6 5 4 5 5 5 5 4 4 5 6 6 6 6 6 5 5 5 4 4 4 3 2 2 2 2 2 3 4 4 4 4 5 6
5 2 5 7 8 9 7 5 6 6 7 5 3 4 6 6 5 5 5 5 5 5 4 4 4 4 4 6 7 5 5 4 4 4 3 3 2 3 2 2 2 2 3 3 3 3 3 4 5
6 1 7 8 7 8 6 5 6 5 6 6 5 7 8 8 6 6 5 5 5 4 4 3 4 3 3 3 6 5 5 4 3 4 4 2 1 2 3 3 4 3 3 3 3 3 3 4 6
4 4 8 6 6 7 5 5 5 4 6 6 7 8 9 8 6 5 5 5 5 4 4 4 3 3 3 2 3 2 2 3 2 2 2 1 1 1 1 5 3 2 3 3 3 3 4 5 4
1 5 5 5 5 5 6 5 3 3 5 5 6 8 8 7 6 5 4 4 5 4 4 4 4 3 2 2 2 1 1 2 2 2 1 1 1 0 0 1 3 3 3 2 4 4 2 1 0
1 4 3 4 4 4 4 4 5 5 6 5 6 7 8 6 5 4 4 4 4 4 4 3 3 3 2 2 1 1 1 1 2 2 1 1 1 1 1 1 1 1 1 1 0 0 1 1 0
1 2 3 4 5 5 4 5 5 5 5 6 7 7 7 6 5 4 3 3 4 4 3 4 3 3 2 1 1 1 1 1 2 2 2 2 1 1 1 1 1 1 1 1 1 1 1 0 1
2 1 2 4 4 4 4 4 3 5 5 7 7 6 6 5 4 4 4 4 4 3 3 3 3 3 2 2 1 1 1 1 1 1 2 2 1 1 1 1 0 1 1 1 0 0 1 0 0
2 3 4 4 4 4 3 4 4 5 6 6 6 6 5 4 4 3 3 3 3 3 3 3 3 3 2 1 0 0 1 1 1 1 1 1 1 1 1 1 0 1 0 1 1 1 1 1 1
5 5 3 4 3 3 6 3 6 5 6 6 5 5 5 4 3 2 3 3 3 3 3 2 2 2 2 1 0 0 1 1 1 1 1 1 2 1 1 1 1 0 1 1 1 1 0 0 1
4 2 1 4 2 3 4 1 5 5 5 5 5 5 4 4 3 2 3 3 3 3 3 3 2 2 1 1 1 0 1 1 1 1 1 2 1 1 1 1 1 1 1 1 1 1 1 0 1
2 2 1 1 2 3 3 1 4 5 4 4 4 5 4 3 3 3 3 3 3 3 3 2 3 2 1 1 1 0 1 1 1 1 1 1 1 1 1 0 1 1 1 1 1 0 0 1 1
4 4 2 2 1 2 2 2 3 4 4 4 4 5 4 4 4 4 3 4 4 3 3 3 3 3 2 1 1 1 0 0 1 1 2 1 1 1 1 2 1 1 1 1 2 1 1 1 1
5 4 1 2 2 2 2 2 3 4 3 3 4 4 5 5 5 4 4 4 4 4 3 4 3 3 2 1 1 1 0 0 1 1 2 2 1 1 0 1 1 1 1 1 2 2 2 1 1
5 4 3 1 2 4 4 4 4 5 4 4 3 4 5 5 5 6 5 4 4 4 4 3 3 3 2 1 1 1 1 1 1 1 1 2 2 1 2 1 2 2 1 1 1 2 2 2 0
3 1 3 4 6 3 5 3 4 6 5 5 5 4 5 5 5 6 6 5 4 4 4 4 3 2 2 2 1 1 0 0 1 1 1 1 1 1 1 1 1 2 1 1 2 1 2 3 2
3 1 4 6 7 5 4 5 3 5 4 4 5 5 4 5 5 5 5 5 4 4 4 4 3 2 2 2 2 2 1 0 0 0 1 0 1 1 1 1 1 1 1 2 2 2 3 2 2
2 4 5 7 7 6 3 6 1 3 1 2 4 4 5 5 6 6 5 5 4 5 4 4 4 3 3 2 1 1 1 1 1 1 0 1 0 0 1 1 1 1 1 1 1 1 1 2 2
7 7 5 6 5 2 1 4 2 4 2 2 3 4 5 6 6 6 6 5 5 5 4 4 4 3 3 2 2 1 1 1 1 1 0 1 1 0 1 1 1 1 1 1 1 0 1 1 2
6 8 7 6 5 2 3 3 4 4 3 3 3 4 6 6 6 6 6 5 5 5 5 4 4 3 3 2 2 1 1 1 0 1 2 1 1 1 1 1 1 1 2 2 1 1 1 1 1
5 6 7 9 7 6 2 2 5 5 4 4 4 5 6 6 6 6 6 5 5 5 4 4 4 3 2 2 2 2 1 0 1 1 1 1 2 1 1 1 1 1 1 2 2 1 1 1 2
6 5 5 7 6 6 3 3 1 4 4 5 5 5 6 6 5 5 5 5 4 5 5 4 4 3 3 2 2 2 1 1 0 1 1 2 2 2 1 1 1 1 1 1 2 1 1 2 2
5 6 5 6 6 8 6 2 4 2 4 4 5 5 5 5 5 4 4 4 4 5 5 5 4 3 3 2 2 1 1 1 0 0 1 1 1 2 1 1 1 2 2 2 2 2 2 3 2
6 6 6 6 5 7 8 1 5 2 3 5 5 5 5 5 5 5 4 4 4 4 4 4 3 3 3 2 2 2 2 1 0 0 0 1 1 1 1 1 1 1 1 2 2 3 3 3 3
Wind_Direction
180 186 209 232 233 107 66 61 58 61 62 58 50 40 45 36 24 56 74 84 79 91 92 105 94 97 90 99 117 129 134 136 138 139 133 130 136 145 154 159 163 176 181 180 174 171 168 167 169
178 189 229 239 287 73 68 58 63 58 71 75 61 53 59 60 51 80 96 92 100 98 99 89 93 93 89 93 109 127 133 137 141 142 138 133 131 138 149 150 164 178 174 174 171 171 170 171 171
185 226 259 264 46 53 65 63 71 78 72 55 67 53 47 54 60 75 90 112 111 101 100 94 92 89 84 84 100 136 127 125 129 134 134 132 132 134 135 142 152 154 156 162 165 171 173 174 175
214 225 232 60 67 57 61 71 81 89 79 61 69 79 73 55 52 81 104 117 115 110 104 98 95 90 80 72 67 104 111 115 120 126 128 123 119 122 118 110 115 137 149 155 156 163 171 176 177
239 254 144 79 71 67 70 74 77 73 71 70 70 83 80 66 78 97 109 114 111 107 103 104 97 87 78 78 80 88 94 101 111 118 120 117 114 115 110 102 98 126 143 149 148 152 162 177 181
249 248 67 74 74 75 77 80 89 78 80 79 75 85 81 84 95 106 112 110 104 104 108 110 113 96 83 81 83 87 93 100 106 112 112 110 106 97 91 92 89 108 131 144 155 159 162 174 181
294 9 58 68 80 81 72 72 68 73 76 66 64 82 98 98 99 111 113 109 105 103 102 101 120 121 113 93 83 86 88 91 98 106 107 106 103 95 94 86 77 92 118 138 151 159 161 168 178
296 297 74 71 72 78 85 85 69 60 73 74 51 74 101 113 122 118 115 113 106 102 99 101 99 98 115 117 104 90 86 88 98 105 110 120 146 146 138 141 99 96 108 126 146 152 166 177 176
264 334 62 57 66 84 93 92 84 80 95 87 68 62 95 121 131 127 119 117 115 107 102 101 104 102 95 96 108 126 125 117 143 137 138 172 175 139 148 82 80 86 99 116 136 146 171 186 174
269 48 57 47 53 84 95 83 95 117 100 95 95 94 114 129 137 133 123 122 121 119 116 107 96 89 98 95 98 101 111 107 96 77 101 100 71 31 43 99 111 110 124 145 152 169 194 215 182
352 40 54 69 71 89 100 95 97 101 86 88 107 124 135 140 140 134 126 120 116 124 120 115 108 102 91 87 86 75 85 94 99 83 88 92 56 78 69 114 146 162 175 181 160 192 199 155 100
66 57 51 81 98 99 88 93 85 58 67 86 112 129 139 145 140 141 132 130 123 121 118 110 109 102 80 58 68 86 82 88 75 80 25 57 55 21 41 18 62 105 100 113 156 147 96 82 109
103 74 88 106 113 98 101 92 83 84 90 108 121 135 145 144 138 131 121 119 118 124 123 116 105 99 105 97 1 72 64 53 72 52 48 19 33 35 45 27 19 49 81 129 165 86 99 181 182
31 64 119 136 135 133 122 110 114 102 119 125 130 138 144 143 142 137 140 140 139 138 129 123 123 114 109 113 90 17 45 72 43 46 33 353 0 30 28 84 63 61 60 29 313 159 186 219 332
230 194 152 143 164 157 176 126 111 128 141 138 137 135 132 137 146 155 153 156 150 146 136 134 136 123 128 135 169 107 24 44 19 49 42 353 356 27 357 48 76 56 104 174 215 235 201 195 180
217 221 165 125 177 179 243 95 114 146 162 154 149 144 141 141 146 144 152 159 156 149 141 148 146 133 144 143 126 352 4 24 5 20 62 50 19 351 322 25 31 346 241 195 176 244 223 216 208
201 248 67 121 169 207 235 88 121 160 174 166 160 154 151 145 141 141 156 154 152 150 150 153 149 135 141 135 151 172 50 21 0 14 36 58 40 348 313 14 12 273 263 269 259 108 285 240 253
335 332 5 45 129 221 224 153 139 169 183 173 168 163 160 152 142 139 146 138 132 129 133 139 139 128 142 155 152 129 70 52 31 40 43 24 29 15 332 89 6 308 340 316 330 315 273 275 275
297 293 323 52 99 242 223 206 167 167 188 188 181 172 165 149 130 127 131 129 129 130 131 134 136 134 157 167 207 182 111 47 51 57 45 29 9 13 341 345 23 322 352 329 310 285 203 229 251
255 264 269 125 127 252 231 222 172 171 187 197 189 176 171 154 138 135 141 143 139 134 137 146 157 154 178 173 209 222 304 339 63 41 54 26 18 355 17 357 321 346 338 322 314 298 294 259 249
250 271 280 283 193 205 233 203 176 164 175 176 185 182 171 164 160 155 156 155 150 148 151 149 156 160 183 190 197 181 174 206 143 90 76 36 18 29 6 355 328 341 317 351 304 296 292 295 276
258 302 263 244 249 226 256 267 159 166 172 177 183 180 176 169 166 163 161 161 161 158 149 142 143 154 167 188 206 215 260 348 19 2 65 74 35 15 16 339 331 313 322 352 306 336 299 288 279
315 309 250 250 260 262 233 268 134 165 184 176 184 180 175 172 166 162 160 157 160 154 149 145 145 142 150 187 193 225 248 275 3 68 90 358 64 19 357 354 344 322 327 353 349 354 317 293 292
196 216 220 232 247 252 256 271 209 139 164 153 160 165 172 169 165 162 156 152 156 154 155 152 149 151 151 163 167 204 287 311 346 5 358 245 169 88 35 344 338 316 331 347 333 332 340 327 324
227 254 249 236 231 253 120 268 41 80 93 138 155 155 163 165 163 159 156 158 159 159 159 156 150 155 159 165 173 189 222 221 241 291 316 294 316 15 32 347 324 330 321 307 302 285 323 316 302
249 272 282 293 301 310 188 262 78 95 103 117 139 144 153 159 161 160 160 165 168 168 168 161 157 162 168 172 176 192 227 238 250 332 323 324 331 5 357 310 305 317 312 298 287 278 263 293 279
249 255 292 285 280 281 258 171 136 137 142 139 137 144 150 154 159 160 162 167 169 165 162 162 157 163 174 179 175 178 187 291 338 306 283 319 333 339 346 321 297 291 297 300 285 299 305 307 286
284 291 261 273 288 282 262 238 153 158 164 154 151 149 147 151 154 153 159 163 161 155 148 153 154 159 164 164 164 139 144 149 217 288 356 345 340 346 332 314 304 292 287 281 276 268 280 272 276
216 229 260 278 291 293 293 15 69 151 169 170 158 150 150 153 150 144 148 149 148 148 146 148 149 153 152 138 138 136 141 145 140 350 341 340 345 349 339 332 318 311 318 311 297 296 282 272 275
261 266 259 270 273 277 288 359 90 134 162 162 156 146 146 147 146 141 136 134 137 137 135 134 142 142 140 139 140 143 143 149 158 86 324 352 5 359 5 352 327 300 300 295 288 291 298 292 287